STARLINK-1554, 46055

Orbit data source: Space-Track

STARLINK-1554, 46055 is a payload satellite owned by SpaceX/Seattle (US) in LEO that was launched on Fri, 07 Aug 2020 UTC via an FALCON 9 launch vehicle from the Air Force Eastern Test Range (AFETR). Payload-class satellites include a variety of spacecraft equipped with specific instruments for various scientific and technological missions. These include communications satellites like Starlink; space stations such as the ISS; scientific satellites like the Hubble; Earth observation satellites from companies like Planet Labs, Umbra, and HawkEye 360; GPS; miniature CubeSats for education and research; and military/defense satellites.

Loading next visibility...
Identifier
46055, 2020-055AE
Orbit
LEO
Country
Flag of USUS
Related business
Manufacturer
SpaceX/Seattle
Mission
Operational Commercial Communications
Bus & Motor
STARLINK, Unknown motor
Mass
260 kg wet, ~248 kg dry
Launch date (UTC)
2020-08-07 (6 years ago)
Launch vehicle
FALCON 9
Launch site
Air Force Eastern Test Range (AFETR)
Object type
Payload
Rocket body
Debris
Shape & HBR
Box + 1 Pan, 10.1 m
Radar Cross Section
13.562 m², Large (>1 m²)

Expand to show TLE details & history
Last TLE update: 13 hours ago

TLE from 13 hours ago
0 STARLINK-1554
1 46055U 20055AE  26235.62760191  .00001156  00000-0  49014-4 0  9997
2 46055  53.1603  57.1885 0001158  71.7964 288.3163 15.31697359334654
Epoch: 2026-08-23T15:03Z
TLE epoch observation values (Epoch: 2026-08-23T15:03:44.805Z)
Latitude
-0.00003°
Longitude
-140.66915°
Altitude
471.399 km
Speed
7.632 km/s
True Right ascension
03h 48m 45s
True Declination
0° 00' 00"
Sunlit
Object was in daylight at epoch
Visualization orbit readout
Latitude
Unknown
Longitude
Unknown
Altitude
Unknown
Speed
Unknown
Apparent Right ascension
Unknown
Apparent Declination
Unknown
Sunlit
N/A
Visualization observer readout
Local Sidereal Time
18:58:21
Azimuth
Unknown
Elevation
Unknown
Doppler factor
Unknown
Orbital elements
Apogee altitude
471.798 km
Perigee altitude
470.211 km
Semi-major axis
6,849.141 km
Eccentricity
0.00012
Inclination
53.1603°
RAAN
57.1885°
Arg. of periapsis
71.7964°
True anomaly
288.3037°
Mean anomaly
288.3163°
Eccentric anomaly
288.31°
Mean motion
3.82903 °/min
Orbital period
94.02 mins
BSTAR
0.000049014
Loading maneuver chart data...
Computing Atmospheric mass density...

Documentation

Showing up to 5 results
|